Wind_Speed
21 20 18 16 16 16 7 1 0 1 1 2 2 1 2 1 1 1 1 2 1 1 2 6 9 6 5 5 6 4 3 2 2 2 2 1 15 26 21 24 29 28 25 24 25 24 23 22 22 24 24 25 25 25 25 25 25 26 26 25 24 24 23 22 21 22 21 21 19 18 17 16 15 15 14 13 12 11 11 10 10 10 11 11 11 12 10 8 8 10 9 8 7 6 6 6 6
23 20 17 15 16 10 1 1 0 0 0 2 2 2 1 1 1 1 3 3 2 3 4 7 9 6 6 8 8 4 4 3 2 2 2 12 21 20 20 27 31 29 26 26 26 25 23 23 22 23 25 25 25 25 25 25 25 25 24 24 23 23 22 22 21 21 20 19 18 17 16 16 15 14 13 12 11 10 10 10 10 10 10 10 10 10 9 7 8 9 7 6 6 5 5 5 6
25 20 19 15 10 4 1 1 0 1 0 3 3 2 1 1 2 2 3 3 4 7 6 8 8 5 5 6 4 2 2 2 5 5 6 18 18 15 24 29 31 30 27 27 26 25 25 24 23 23 24 25 24 25 25 24 24 24 23 23 22 22 22 21 21 21 20 19 17 16 16 15 14 13 12 11 10 9 9 9 9 9 9 9 9 8 8 7 7 8 6 5 5 5 5 5 5
23 20 20 11 3 1 0 0 0 1 1 3 2 3 2 2 3 1 1 5 7 8 7 7 5 1 3 5 2 3 3 3 6 6 8 15 14 20 29 30 32 30 27 27 26 25 25 24 23 22 23 24 24 24 24 24 23 23 22 22 21 21 21 20 20 19 18 17 16 16 15 14 13 12 11 10 9 9 8 8 8 8 8 8 7 7 6 5 6 7 5 4 5 6 5 5 6
20 20 20 6 1 1 1 1 0 2 3 2 1 4 3 3 0 3 4 7 7 7 7 5 3 1 4 4 1 2 4 5 7 7 10 12 17 27 31 32 33 30 28 27 26 25 24 24 23 22 23 23 23 24 24 23 23 22 22 21 21 20 20 20 19 18 17 16 15 14 14 13 12 11 10 9 9 8 7 7 7 7 7 7 6 5 5 4 5 5 4 4 4 5 5 5 6
17 16 14 3 2 1 0 2 1 2 4 3 2 3 3 1 4 6 6 6 5 5 5 3 4 5 5 3 3 2 5 7 8 10 13 15 22 29 31 33 32 31 29 27 27 25 24 24 22 22 22 23 23 23 24 24 23 22 21 20 20 20 19 18 18 17 16 15 14 13 13 12 11 10 9 9 8 7 7 6 6 6 6 6 5 5 4 4 3 4 4 4 4 4 4 5 5
17 9 5 3 1 1 1 2 3 3 4 4 4 2 3 3 5 8 7 5 4 4 4 4 6 7 3 1 3 3 5 7 9 12 16 21 27 29 30 33 31 31 29 27 27 25 25 24 22 22 22 22 23 23 23 23 22 21 21 20 19 19 18 17 17 16 15 14 13 13 12 11 10 10 9 8 7 7 6 7 7 7 6 6 6 5 5 4 3 3 3 4 4 4 3 4 4
16 4 1 2 0 1 2 3 4 3 4 3 3 3 6 6 6 7 6 3 2 3 4 5 5 5 3 2 3 4 6 9 12 16 20 25 29 29 30 32 31 30 29 28 27 27 25 23 22 22 22 22 22 22 22 22 21 21 20 19 18 18 17 17 16 15 14 13 12 11 11 10 9 9 8 7 7 6 6 7 7 6 6 6 6 6 6 5 4 5 4 4 3 3 3 3 3
9 2 0 1 1 1 2 3 4 4 4 4 3 3 7 8 6 6 6 2 3 5 5 5 3 4 4 5 4 3 7 13 17 19 23 26 28 29 30 30 31 30 29 29 27 27 25 23 23 22 22 22 22 22 22 22 20 20 19 18 18 17 17 16 15 14 13 12 11 10 10 9 9 8 7 7 6 6 6 6 6 5 5 6 6 7 7 6 6 6 5 4 4 3 2 2 2
4 2 0 0 1 1 2 3 3 3 3 4 4 4 8 8 6 5 5 4 4 5 4 3 5 6 6 5 4 3 9 19 21 20 23 26 26 28 29 29 30 31 29 29 28 27 25 24 23 22 22 21 22 22 21 21 20 19 18 18 17 17 16 15 14 13 12 11 11 10 9 8 8 7 6 6 6 6 6 6 5 5 5 6 6 7 8 7 7 7 6 5 5 4 3 3 2
1 1 1 0 1 2 2 3 4 3 3 3 3 5 9 8 7 5 4 5 4 5 4 4 6 7 7 5 2 5 14 21 22 22 23 24 24 26 27 28 28 30 30 29 28 26 24 24 23 22 22 22 22 21 20 20 19 18 18 17 16 16 15 14 14 13 12 11 10 9 8 8 7 6 5 4 5 5 5 5 5 5 5 6 6 6 8 7 7 6 6 6 6 5 4 3 2
2 1 1 1 2 2 3 3 5 5 3 2 3 5 9 9 8 6 7 6 4 5 3 2 6 6 6 3 2 9 15 19 21 23 23 22 23 24 27 27 27 29 30 29 28 26 24 24 24 22 22 22 21 20 20 19 18 18 17 17 16 15 14 14 13 12 12 11 10 9 8 7 6 6 5 4 4 4 4 4 4 5 6 6 5 5 6 7 6 6 5 5 5 5 5 3 3
1 2 2 1 2 2 2 3 4 4 4 3 4 6 10 10 9 9 8 6 5 6 3 3 7 5 5 4 4 9 12 16 21 23 23 22 21 23 26 26 26 28 28 28 27 26 24 24 24 23 22 21 21 21 20 19 18 17 17 16 16 15 14 14 13 12 12 11 10 9 8 7 6 5 5 4 3 3 3 3 4 6 6 5 5 5 5 6 6 6 5 5 5 5 5 4 3
2 2 2 2 1 2 2 3 3 2 4 3 4 9 10 7 9 10 9 8 6 5 4 7 8 6 4 5 5 7 11 19 23 23 23 22 21 22 24 25 26 28 27 27 27 26 24 24 25 23 22 22 21 20 20 19 18 17 17 16 16 15 14 14 13 12 11 11 10 9 8 7 6 5 4 4 3 3 2 2 3 4 5 5 4 4 5 5 6 6 5 5 5 5 5 4 4
3 1 2 2 2 2 2 3 3 2 4 2 6 11 8 3 9 11 10 10 5 3 7 8 5 3 4 6 5 8 15 24 25 24 23 21 22 22 23 25 26 27 27 27 27 26 24 23 24 24 23 22 22 21 20 19 18 17 17 16 16 15 15 14 13 12 11 11 10 9 8 7 6 5 4 3 3 2 1 1 2 3 3 4 3 3 4 5 6 6 5 5 5 5 5 4 4
3 1 1 2 2 2 2 3 2 3 3 3 7 10 7 3 8 8 6 5 4 6 6 5 4 1 5 5 6 15 23 27 26 25 23 22 22 21 22 23 25 26 26 27 26 27 25 23 23 24 23 23 22 21 20 19 18 17 17 17 17 16 15 14 13 12 11 11 10 9 8 7 6 5 4 3 3 2 2 1 1 2 2 3 2 2 3 4 5 5 5 4 4 4 4 4 3
2 1 1 3 2 2 3 3 2 3 3 6 8 10 9 5 5 3 4 5 6 9 3 3 1 1 6 7 14 25 28 28 27 26 24 23 22 22 22 23 24 24 25 26 26 27 26 23 23 24 23 23 23 22 21 20 18 18 18 18 17 16 15 13 12 11 11 11 10 9 8 8 7 6 6 5 4 3 3 2 1 1 2 2 1 1 2 3 4 4 4 3 2 2 2 2 2
3 2 2 4 3 3 4 4 3 3 4 8 9 11 12 10 7 3 5 4 5 7 2 4 4 5 10 17 25 28 28 29 27 25 23 21 21 20 21 23 24 24 24 25 26 27 26 24 24 24 24 23 23 22 21 21 19 18 18 18 18 17 15 14 13 11 11 11 10 10 10 9 8 8 7 6 5 4 4 3 1 0 1 2 2 2 2 2 2 3 3 2 2 2 1 1 1
4 2 2 5 4 3 3 3 4 1 5 8 8 9 10 11 9 6 6 6 9 8 3 5 6 8 12 20 27 27 27 28 26 24 22 20 20 20 20 22 23 24 25 26 26 27 27 26 25 25 24 24 24 23 22 21 20 19 19 19 18 17 16 15 13 12 12 12 11 11 11 10 10 9 8 7 6 5 4 3 1 1 2 3 3 3 3 2 2 2 3 2 2 2 1 1 0
4 2 3 6 5 5 4 5 7 3 7 9 7 7 7 8 8 5 7 9 10 9 7 8 7 10 13 17 23 25 26 25 24 22 21 20 19 20 20 21 23 24 26 27 27 27 27 27 26 25 25 25 24 23 22 22 21 20 20 20 19 18 17 15 14 13 13 13 13 12 12 12 11 10 9 7 6 6 5 4 2 1 2 4 4 4 4 3 3 3 3 3 2 2 2 2 1
4 5 6 5 3 4 6 6 7 3 8 9 7 7 6 6 6 5 10 10 7 9 11 14 15 16 16 17 19 23 23 22 23 21 21 20 20 20 20 21 22 23 25 25 27 27 27 27 27 26 26 26 25 24 24 23 23 21 21 21 19 19 18 17 16 15 15 14 14 13 13 13 12 10 9 9 8 7 6 5 4 2 3 4 5 5 4 4 4 4 4 3 2 2 1 1 1
3 8 9 7 5 5 4 3 2 2 5 8 9 8 7 6 5 8 14 12 8 11 14 14 17 20 20 20 20 20 20 20 20 21 21 20 21 21 20 22 22 22 24 25 26 27 28 27 28 27 26 26 26 26 25 24 24 23 22 22 20 19 19 18 17 16 16 15 14 14 14 13 12 11 10 10 10 9 8 7 5 3 3 4 4 5 5 4 5 5 4 3 3 3 2 1 0
6 6 9 10 8 9 5 2 0 5 5 7 9 8 7 8 7 9 15 11 4 7 11 12 15 20 22 21 20 20 19 19 20 22 23 23 23 23 24 24 24 25 25 25 26 27 28 28 28 28 27 26 26 26 26 25 25 24 23 22 22 20 19 19 18 17 17 16 15 15 15 14 13 12 12 12 11 10 9 8 6 5 5 4 4 5 5 5 5 5 4 3 3 3 2 1 1
10 8 8 9 8 10 8 4 3 6 8 9 7 7 10 13 8 8 14 9 0 6 10 13 14 17 21 19 19 20 19 20 21 24 25 25 25 25 25 25 25 25 25 25 26 27 28 28 28 28 27 26 27 27 27 27 26 25 24 23 23 21 20 20 19 18 17 17 16 16 15 14 14 13 14 13 12 11 10 8 7 6 6 5 5 6 7 6 6 5 5 4 3 3 2 2 2
11 10 8 7 6 9 9 6 5 5 8 7 7 9 13 14 7 9 16 9 3 10 12 13 15 16 18 18 19 18 17 19 21 24 24 23 24 23 23 24 24 25 26 27 27 27 29 29 29 28 27 27 27 28 28 28 27 26 25 24 24 23 22 21 20 19 18 18 17 16 16 15 15 15 15 13 12 11 9 9 8 7 6 6 6 8 8 7 7 7 6 5 4 3 3 4 4
8 10 8 9 10 10 9 7 7 7 6 7 10 11 12 9 5 7 13 7 6 12 13 14 16 17 17 17 18 17 17 19 20 23 23 23 24 24 24 25 26 27 28 28 28 29 29 29 30 29 28 28 28 28 28 29 28 27 27 26 25 24 23 22 21 20 19 19 18 17 17 16 16 16 15 13 12 11 9 9 9 8 7 7 7 9 9 9 8 8 7 6 6 4 4 6 5
5 7 9 11 12 11 9 8 8 8 6 10 13 13 13 8 5 7 7 8 10 13 14 15 16 17 17 16 16 16 16 19 22 23 22 22 24 25 25 27 27 28 28 28 29 29 29 30 31 31 30 29 29 29 29 29 29 28 28 27 26 25 24 23 22 21 20 20 19 18 18 17 17 17 15 14 12 11 10 10 9 9 8 8 9 10 10 10 10 9 7 6 7 6 5 7 5
7 7 10 11 10 10 9 9 7 6 6 13 15 12 9 6 6 8 6 10 13 14 14 15 15 14 15 17 15 13 13 19 24 22 21 22 25 26 27 28 29 28 29 30 30 30 29 30 31 31 31 29 29 30 29 29 29 29 28 28 26 25 24 24 23 22 22 21 20 19 19 18 18 18 16 14 13 11 10 10 10 10 10 8 9 11 10 11 11 9 8 7 8 8 7 6 4
7 6 8 10 8 9 10 7 5 7 6 10 10 2 4 9 11 7 9 11 13 14 14 14 14 13 12 14 13 11 12 18 21 21 23 25 26 28 29 30 31 30 31 31 30 30 30 31 31 31 31 30 30 30 30 29 30 29 29 28 27 25 25 25 24 23 22 21 21 20 20 19 19 18 17 15 13 12 11 11 11 12 11 9 10 11 11 12 12 10 9 9 9 9 8 5 4
5 3 4 6 6 8 7 1 4 6 6 10 11 1 6 14 10 8 11 13 14 13 14 14 13 11 11 11 11 11 13 16 19 21 25 26 27 29 29 30 32 32 31 31 30 31 31 30 31 31 31 31 31 30 30 30 30 30 29 29 28 27 26 25 25 24 23 22 21 21 21 20 20 19 17 15 13 12 12 12 12 13 12 11 11 11 12 13 13 10 10 10 9 10 9 7 5
3 4 2 2 2 7 5 3 4 1 4 13 13 5 8 12 9 10 12 15 16 14 14 13 12 11 11 11 11 11 12 15 19 23 25 27 27 28 29 30 31 32 30 31 33 33 31 30 30 31 31 32 31 31 31 31 30 30 30 30 29 28 27 26 26 25 24 23 22 22 22 21 21 19 17 15 14 13 13 13 13 13 13 13 13 12 13 13 12 11 11 11 10 10 9 7 6
1 2 4 2 2 7 8 2 4 3 4 12 13 5 6 7 10 12 13 15 16 15 14 14 13 13 13 12 12 11 11 14 19 23 25 27 27 28 29 30 31 32 32 33 34 33 31 31 31 31 32 33 33 32 32 31 31 31 31 30 30 29 28 27 27 26 25 24 23 23 23 22 21 20 18 16 15 14 14 14 14 14 14 14 13 13 14 14 13 12 12 12 11 11 9 7 6
1 2 4 4 2 5 7 5 3 3 3 8 11 6 3 4 9 12 13 16 15 13 14 15 14 13 13 12 11 11 10 12 15 20 25 27 28 29 30 31 32 33 33 34 34 33 32 32 31 31 32 33 33 33 32 31 31 31 31 30 30 29 29 28 27 26 26 25 24 24 23 23 21 20 18 17 17 16 15 15 15 15 15 14 14 14 14 14 13 13 12 13 12 11 9 7 6
2 1 3 4 4 3 4 6 5 1 4 7 11 9 4 2 9 14 14 16 15 13 14 15 14 13 12 12 11 11 12 13 14 19 26 29 29 30 30 31 32 33 33 33 34 34 34 33 32 31 31 32 33 33 32 31 31 30 30 30 29 29 29 28 27 26 26 25 25 24 23 22 21 20 19 18 18 17 16 16 16 16 15 15 14 14 14 14 14 14 13 13 12 11 11 8 7
4 3 3 4 4 4 6 5 4 3 1 6 9 11 8 4 6 13 15 17 16 15 15 14 14 13 12 11 12 12 13 14 15 20 27 29 30 30 30 30 31 32 33 32 32 33 33 33 32 31 31 31 32 32 31 30 29 28 28 28 28 28 28 28 27 27 26 26 25 24 22 22 21 20 19 19 19 19 19 18 17 17 16 16 15 14 14 14 14 14 14 13 12 12 11 9 7
7 6 4 4 4 6 6 5 5 3 3 6 7 10 11 5 7 11 13 16 15 13 12 11 11 12 11 11 11 12 14 15 16 21 26 27 29 30 30 31 32 32 32 32 32 32 32 32 32 31 32 31 31 31 31 30 28 27 27 27 27 28 28 28 28 28 27 26 25 24 23 22 21 20 20 19 20 20 20 20 18 18 18 17 16 16 15 15 14 15 14 13 13 12 11 9 8
5 4 3 5 5 7 6 5 5 2 2 6 6 8 10 7 8 11 13 13 13 12 12 12 13 12 12 13 13 14 15 13 14 21 25 26 28 29 29 30 31 31 31 31 32 32 33 33 33 33 32 31 31 32 32 31 30 29 28 28 28 28 28 28 28 29 28 27 26 25 24 23 21 21 20 20 20 21 22 21 20 19 19 18 18 17 16 15 15 14 13 13 13 13 12 9 8
6 5 4 6 6 8 8 5 6 2 2 7 6 5 8 7 8 9 11 14 14 15 15 15 16 15 13 14 16 15 13 10 12 17 22 26 27 28 29 29 30 31 31 33 34 34 34 34 34 34 33 32 33 34 33 33 33 32 31 30 29 29 29 29 29 29 29 27 26 25 24 23 22 21 21 21 21 22 22 22 21 20 20 19 19 18 16 16 15 14 13 13 13 13 11 9 9
6 5 4 6 5 5 7 6 5 2 3 7 7 7 7 5 8 9 13 16 16 17 19 20 20 18 15 15 16 15 12 11 13 15 19 25 27 28 29 28 31 33 33 35 36 35 35 35 35 34 34 34 34 35 35 35 35 34 32 30 29 29 29 30 29 28 28 27 26 25 25 24 23 22 22 22 22 23 23 23 22 21 20 19 19 19 18 17 15 13 12 13 13 13 12 10 10
6 5 5 6 4 2 4 5 4 2 4 4 3 4 5 2 5 9 13 14 11 12 15 14 15 17 18 18 17 15 15 15 15 15 16 20 25 28 29 29 32 33 33 34 35 35 36 37 38 37 37 37 36 37 37 36 35 33 31 29 28 27 27 27 27 27 28 27 27 27 26 25 24 22 21 21 23 23 22 23 22 22 21 20 20 20 19 18 16 14 13 13 13 13 12 11 10
6 6 7 7 4 4 5 4 5 4 3 2 1 3 6 2 6 8 10 11 9 9 11 10 10 13 14 13 13 14 15 15 15 16 16 17 21 27 31 32 32 32 33 35 37 38 39 40 41 40 39 38 38 38 37 35 33 31 29 26 24 24 24 24 25 27 28 28 28 28 28 26 25 23 22 22 23 23 22 22 22 22 22 21 20 20 19 18 16 15 14 14 15 14 13 12 11
6 9 11 9 5 4 4 2 5 5 5 3 2 2 6 3 6 8 6 9 11 9 11 14 13 12 12 11 12 13 13 13 14 15 16 16 20 25 29 31 31 32 35 37 39 41 41 41 41 40 39 38 39 38 37 35 33 32 29 27 25 24 24 25 28 28 29 30 30 29 28 27 26 25 24 23 23 23 23 22 22 22 22 21 21 20 19 18 17 15 15 15 16 15 14 12 12
8 8 9 7 7 6 5 3 1 2 5 5 3 4 5 5 5 8 7 11 15 12 12 16 13 12 13 12 12 13 13 13 13 14 15 16 19 22 25 31 33 34 38 39 39 40 40 39 39 40 39 38 38 38 37 36 35 34 33 32 31 28 27 29 30 28 28 30 30 29 28 27 27 26 26 25 24 24 23 23 22 22 22 21 21 20 19 18 16 15 14 15 16 16 14 13 13
7 5 9 8 8 8 7 6 5 4 4 5 2 4 4 6 6 8 9 10 13 12 14 14 13 14 15 14 14 14 15 15 14 14 16 17 19 22 26 32 37 39 41 40 39 40 40 40 39 40 40 38 38 38 38 38 38 36 35 34 32 31 31 30 28 26 26 27 28 29 29 28 28 28 27 26 25 24 24 23 23 22 22 22 21 20 19 17 16 14 14 15 16 16 14 14 13
4 7 9 7 8 7 6 6 5 3 1 7 6 5 4 7 5 4 8 11 11 14 17 16 15 17 17 16 16 16 15 15 15 15 17 17 20 27 32 35 39 42 41 40 41 42 42 42 41 40 40 39 38 38 39 40 40 38 36 35 33 32 32 30 26 24 25 25 27 29 29 29 29 29 28 27 26 25 25 24 23 23 22 22 21 20 18 17 16 15 15 16 17 16 15 14 13
4 5 4 2 4 3 3 5 4 1 2 9 8 5 5 7 4 2 6 9 12 14 15 16 16 17 17 17 16 16 15 14 15 15 16 18 23 31 35 36 38 39 39 40 42 42 41 42 41 40 41 41 40 40 41 42 42 39 37 36 35 34 32 29 26 25 24 25 26 28 29 30 30 30 29 28 26 25 25 24 24 24 23 22 21 20 19 18 16 16 16 17 18 17 16 15 14
4 4 3 2 2 2 2 1 2 1 7 9 8 7 6 6 4 5 6 8 13 13 12 13 15 15 16 16 15 16 15 13 14 15 15 18 25 31 31 31 34 34 34 36 37 37 38 39 39 41 42 42 41 41 42 43 43 41 40 39 38 37 33 29 28 27 26 26 27 28 29 30 31 31 30 28 27 26 25 25 25 24 23 22 21 20 20 18 17 17 17 18 18 17 16 16 15
5 4 4 1 4 2 0 2 3 6 9 5 7 8 7 8 6 7 8 10 14 14 14 16 18 18 17 16 16 17 16 15 14 15 15 16 19 23 25 28 30 31 31 32 33 34 35 36 38 39 40 41 40 40 42 43 43 42 42 41 40 39 36 33 32 31 29 29 29 29 29 30 31 30 29 29 28 27 26 26 26 26 24 23 21 20 20 19 18 18 19 18 18 17 16 16 15
6 4 6 4 3 1 3 2 2 7 7 2 5 6 6 9 6 7 11 11 13 15 16 17 20 21 18 17 18 16 15 16 15 15 15 15 15 16 20 27 29 29 31 33 34 34 34 36 38 39 40 41 40 40 41 42 42 43 42 41 41 40 38 36 35 34 33 32 32 31 30 31 31 30 30 31 31 29 28 28 28 27 26 23 22 21 20 19 19 20 20 19 18 18 17 17 17
7 6 6 6 4 3 5 5 3 4 5 3 4 5 3 6 4 9 13 13 14 16 16 17 19 20 20 20 20 17 16 17 16 16 15 15 16 16 19 26 28 29 33 35 35 35 35 36 38 40 40 42 42 42 42 42 43 43 43 43 41 39 38 38 37 36 35 34 34 33 33 33 32 32 32 33 32 31 30 30 29 28 26 24 22 21 21 20 20 21 22 21 20 19 18 18 18
7 6 6 5 5 6 5 4 4 4 4 3 2 4 4 3 4 9 13 14 15 15 16 17 16 17 19 19 18 16 16 17 15 15 17 17 18 18 21 26 28 30 33 34 35 36 36 37 38 40 40 41 43 43 43 43 44 44 44 43 42 41 40 39 38 37 36 35 35 35 35 34 33 33 33 33 31 30 30 30 30 29 27 25 23 22 22 21 21 22 23 23 22 21 21 21 20
5 5 6 6 5 5 3 4 6 3 1 2 2 3 5 4 5 7 8 11 13 14 15 15 15 16 16 13 12 13 15 16 16 16 17 18 18 19 22 26 28 31 33 33 35 36 37 38 39 41 42 42 43 43 44 44 45 45 44 44 42 41 40 39 38 38 37 37 36 36 36 36 35 34 33 32 31 30 30 30 30 29 28 26 24 23 23 23 22 23 24 24 23 22 23 23 22
3 4 7 6 5 7 4 4 2 1 2 4 2 3 6 3 5 6 6 8 10 12 14 15 16 17 14 11 11 13 15 16 17 17 18 19 18 19 23 27 28 30 31 34 37 39 40 39 38 40 41 41 41 43 44 44 43 43 43 44 43 41 40 39 39 39 38 37 37 37 36 36 35 34 32 31 31 30 30 29 30 30 28 27 25 24 24 24 24 24 25 25 24 24 23 23 23
6 6 7 3 6 4 4 2 2 2 4 5 2 5 5 3 5 5 5 8 9 11 13 14 16 15 14 12 12 14 16 17 19 19 18 17 17 18 23 28 31 33 35 38 41 42 41 40 40 40 40 41 43 44 44 44 43 42 42 43 42 42 41 41 40 40 38 37 37 37 36 35 34 34 33 32 31 30 30 29 29 29 29 28 26 25 26 26 25 25 25 25 24 24 24 24 24
6 5 7 5 3 4 3 2 4 4 4 4 3 5 5 6 5 3 5 9 10 11 12 13 15 14 13 13 13 14 15 15 16 16 15 16 17 18 23 28 31 34 36 39 41 40 39 39 40 41 42 44 45 43 43 43 43 42 42 42 43 43 42 41 40 39 38 37 37 37 37 36 34 33 32 32 31 31 30 30 30 30 30 29 28 27 27 27 27 26 25 25 26 26 26 26 25
3 2 5 4 3 4 4 4 4 4 4 3 4 5 5 7 7 6 8 11 11 11 10 11 14 15 14 14 13 14 14 14 14 15 16 17 18 20 25 30 32 34 36 38 38 37 37 39 40 40 41 42 42 41 41 42 42 42 40 40 41 41 41 40 39 38 37 38 38 38 37 36 34 33 33 32 32 32 31 31 30 30 30 30 29 29 28 28 28 28 27 27 27 27 27 27 26
5 4 5 4 2 2 3 2 3 4 4 3 3 6 5 5 5 10 11 11 11 12 11 12 14 15 15 15 15 14 14 14 14 15 16 18 18 20 26 32 33 34 35 34 34 36 38 38 38 40 40 39 40 41 42 42 41 40 39 38 39 40 40 40 39 38 38 38 38 38 37 35 34 33 33 33 33 33 32 32 31 31 31 31 31 31 30 29 29 29 29 29 29 29 29 28 27
10 7 7 7 4 4 4 4 3 3 5 5 4 6 7 4 5 8 10 10 11 12 13 12 12 14 15 15 16 16 15 15 16 17 17 17 17 17 22 28 29 29 30 31 32 34 35 36 38 40 39 40 41 43 43 42 40 40 40 40 39 39 40 40 39 39 39 39 39 38 36 34 33 33 34 34 34 34 33 32 32 32 32 33 33 33 32 31 31 31 31 31 31 31 31 30 29
Wind_Direction
150 146 149 156 156 148 138 180 145 180 239 294 257 265 245 190 37 341 138 136 138 164 147 127 130 128 114 118 136 121 59 136 142 136 183 156 149 153 156 159 157 152 147 142 139 137 135 135 133 131 130 129 128 128 127 127 130 132 132 131 130 130 130 130 130 130 128 127 126 125 122 120 117 114 111 108 106 104 103 99 95 92 90 89 88 91 92 92 90 94 100 104 107 109 109 109 114
148 147 154 158 156 148 110 257 344 344 323 304 264 220 234 21 78 238 202 174 158 137 124 124 117 89 89 111 125 114 45 36 81 99 108 133 142 151 159 159 157 153 148 144 142 140 138 137 134 133 131 132 132 131 130 130 132 133 132 131 132 132 132 133 131 130 129 128 127 126 124 121 118 115 112 110 107 104 102 97 94 91 88 87 85 89 92 92 89 92 96 104 111 111 108 103 109
148 153 161 160 158 166 341 138 328 76 62 277 270 247 175 10 240 238 213 174 136 124 117 118 103 82 99 114 119 90 78 65 112 108 123 143 145 155 161 159 158 154 148 147 145 142 141 138 137 135 134 135 134 134 133 132 133 133 133 133 134 134 134 134 132 131 130 130 128 127 125 123 120 116 113 110 108 103 98 95 94 92 89 86 85 86 88 89 88 88 91 99 104 101 96 88 92
153 160 161 155 157 212 325 85 329 133 231 245 270 276 203 232 249 311 94 124 127 127 127 125 97 28 96 121 124 80 106 118 132 124 137 156 159 158 160 160 159 156 151 149 147 144 141 140 140 137 136 137 137 137 135 134 134 134 134 135 136 136 136 134 133 132 132 131 130 129 127 125 121 117 115 111 108 103 98 95 94 92 89 85 84 86 85 86 89 91 91 86 87 91 95 87 79
157 164 162 150 342 164 52 277 178 167 227 197 240 274 225 244 157 71 86 110 125 135 134 124 90 41 71 94 114 111 123 118 142 144 139 157 163 157 158 160 159 157 155 151 149 146 143 143 143 141 139 138 139 138 137 137 136 136 137 137 138 139 138 136 135 135 134 132 131 130 129 127 123 118 116 113 109 103 98 94 90 87 84 82 83 87 88 86 90 96 98 86 77 79 86 88 83
155 162 171 195 315 165 175 234 237 229 241 179 196 266 205 195 111 107 106 101 99 113 116 95 104 110 80 57 46 104 135 128 149 159 147 153 161 158 157 159 159 159 157 153 151 148 147 148 146 144 141 141 141 141 141 140 139 139 140 140 141 142 141 139 137 136 135 134 133 132 132 130 126 121 118 113 109 104 96 87 82 81 81 83 86 89 92 90 90 98 100 93 83 75 80 86 90
153 154 180 248 289 200 271 252 246 243 254 193 185 229 164 142 126 123 119 106 86 78 78 97 118 107 84 96 80 76 119 135 147 158 157 154 157 157 157 158 158 159 160 156 153 152 152 151 149 147 144 145 145 144 144 143 142 142 142 143 144 144 143 141 140 138 136 135 135 134 135 133 130 125 118 113 108 101 90 81 78 78 82 87 91 93 92 88 88 96 100 103 95 84 89 83 84
159 157 145 212 33 354 259 260 249 222 254 230 204 189 155 145 140 135 135 121 107 109 103 131 128 96 71 87 105 72 90 129 145 153 154 151 154 157 157 157 158 159 161 160 157 155 154 153 152 150 148 149 149 149 147 146 145 145 146 146 147 147 145 144 142 140 139 137 137 137 138 137 135 129 120 115 108 97 85 79 78 79 85 89 91 91 89 85 84 91 93 102 109 104 99 82 77
169 216 119 164 45 321 251 260 254 224 251 255 245 188 151 146 143 139 138 102 109 124 128 146 119 103 107 82 98 85 95 128 140 145 149 150 153 156 157 158 158 159 162 162 160 158 156 156 155 153 152 153 154 153 151 149 148 149 150 150 150 149 147 147 145 144 142 140 141 141 140 139 139 133 124 119 110 97 83 79 82 83 87 87 87 89 89 84 84 92 92 93 103 118 119 100 81
180 246 309 50 158 314 280 260 247 233 247 238 238 179 149 146 141 138 130 118 129 118 118 109 77 111 123 97 93 100 124 134 135 139 148 152 153 156 158 159 161 160 163 164 163 161 160 159 158 157 157 157 158 157 156 154 154 155 154 154 153 152 150 149 149 149 147 145 146 145 143 142 143 138 132 125 116 101 83 78 84 85 84 82 83 90 94 90 88 91 90 90 92 110 129 119 100
120 239 316 311 232 287 263 267 275 267 250 235 244 176 153 145 134 128 115 122 126 108 124 97 92 119 111 99 87 118 134 136 137 141 148 152 151 155 158 160 163 163 164 166 165 164 162 160 160 161 161 161 161 161 161 160 160 161 158 157 157 155 153 152 153 153 152 152 151 149 148 147 147 146 144 135 123 108 86 76 79 77 75 75 78 87 94 94 93 93 90 90 89 98 111 117 116
90 169 118 236 224 217 231 268 285 290 284 234 216 180 151 141 140 144 138 141 129 115 157 148 144 139 103 108 115 130 137 135 140 146 149 152 153 155 159 162 166 166 166 167 167 166 165 163 162 164 165 164 165 166 166 166 167 166 163 161 160 159 157 157 158 158 159 158 157 156 154 154 153 153 155 148 128 114 91 75 72 66 64 67 73 78 87 91 91 94 94 93 93 95 97 105 109
120 167 119 227 208 186 237 265 275 303 300 234 184 168 151 149 157 158 143 143 150 148 184 166 156 141 99 121 127 139 144 141 143 148 151 152 154 158 161 164 167 169 168 168 168 167 168 166 164 167 168 168 170 171 172 172 174 172 169 167 165 164 163 164 164 164 165 164 165 163 161 162 161 163 166 163 137 122 107 80 69 56 51 55 64 71 81 89 89 88 88 90 93 94 96 98 98
148 178 142 242 235 207 236 250 267 285 280 246 154 157 157 160 157 151 143 148 171 175 142 141 146 114 107 139 138 157 153 148 148 149 153 152 154 159 164 167 169 170 170 171 170 169 170 169 167 168 170 172 173 175 177 178 180 178 176 173 170 170 171 171 170 169 171 173 174 171 170 171 170 178 179 175 157 140 136 96 75 56 44 45 53 66 80 91 94 92 87 81 81 86 91 91 94
181 234 150 270 301 279 237 224 226 184 252 231 147 150 144 141 146 149 157 158 174 165 122 139 162 100 151 178 164 170 154 150 150 149 152 151 154 159 165 168 170 172 172 174 174 174 173 170 169 170 172 175 176 177 179 181 183 183 181 179 177 177 177 177 175 175 178 181 181 180 180 178 179 190 193 190 183 166 168 126 84 66 46 43 45 58 80 98 105 105 96 80 67 72 78 79 81
201 326 115 281 267 260 238 221 176 161 241 184 146 141 119 96 143 150 159 138 125 149 136 155 204 148 165 187 148 151 150 149 149 149 149 148 152 156 163 168 171 174 175 177 178 178 177 173 171 173 174 176 179 179 180 182 184 186 185 183 182 182 182 182 181 182 184 186 187 187 189 188 189 199 205 213 210 217 241 241 75 74 54 44 45 57 81 104 117 119 114 98 68 60 62 65 58
184 280 207 266 242 242 222 212 183 180 195 154 155 144 126 125 143 116 92 82 121 153 157 142 199 89 142 139 136 144 146 148 148 148 148 147 150 154 161 167 170 175 178 181 182 181 180 177 176 177 176 177 181 181 181 182 184 188 188 187 187 185 185 187 188 189 190 190 193 196 198 199 201 206 211 217 217 229 242 244 281 56 70 72 76 86 99 108 121 129 130 126 112 90 68 58 36
175 196 222 239 227 238 211 214 221 189 160 158 170 156 141 149 158 135 104 85 123 144 133 101 61 57 111 127 135 143 145 149 151 151 151 151 154 157 163 167 171 176 179 183 185 185 184 182 181 181 181 180 183 183 184 184 184 188 190 189 189 189 189 192 194 195 195 194 198 203 206 209 210 214 217 218 219 228 239 247 265 44 94 122 125 125 127 123 130 143 147 153 164 170 141 107 26
191 163 214 237 214 216 208 237 273 223 162 163 169 161 151 155 158 159 146 140 146 148 133 102 84 92 114 129 137 145 149 152 157 156 156 158 161 163 165 169 172 177 180 184 187 188 188 187 186 185 185 185 186 188 189 189 188 190 192 193 193 194 194 197 200 199 201 199 202 207 211 216 217 219 221 221 226 231 233 237 235 142 138 154 152 155 157 157 166 171 172 181 183 188 180 154 101
199 166 219 243 230 247 266 264 274 255 158 155 162 156 148 154 157 168 149 150 167 171 158 139 137 139 136 139 143 149 153 157 161 160 161 163 167 168 168 171 174 177 181 184 187 189 191 191 190 189 189 189 191 193 194 193 191 193 194 195 196 198 198 201 204 204 205 204 207 211 214 221 223 221 221 223 227 225 215 209 210 186 173 171 169 173 179 185 192 192 192 191 181 174 166 131 108
185 197 223 248 235 259 269 256 258 225 157 151 151 149 152 156 162 175 141 143 198 202 189 172 160 156 149 150 151 155 159 162 165 164 165 167 170 172 172 174 176 178 181 184 187 189 192 193 193 193 193 193 194 197 197 195 194 195 196 197 198 200 202 204 206 208 209 209 212 215 218 224 226 222 222 223 221 218 212 208 208 207 190 184 185 187 192 198 195 197 201 201 197 183 172 128 95
215 215 230 255 272 274 271 282 270 142 139 142 149 166 163 148 170 184 157 160 210 207 201 181 158 156 156 157 155 158 163 165 168 169 169 171 172 173 175 176 178 180 182 185 188 190 192 194 195 194 195 196 197 199 198 196 196 197 197 199 201 202 204 206 208 210 212 214 216 220 223 225 226 223 224 224 220 221 221 219 216 219 217 201 202 205 205 206 200 204 210 211 215 209 212 216 88
243 235 233 240 248 254 250 295 247 108 129 166 169 173 146 154 192 192 179 185 214 190 180 165 157 158 156 156 157 162 167 170 173 173 173 173 174 176 177 179 180 181 184 187 189 191 194 195 196 196 197 198 199 201 200 198 199 200 200 201 204 205 207 209 211 213 215 218 221 224 225 224 225 224 225 226 223 225 227 227 226 230 232 222 225 227 219 217 218 223 230 230 230 224 221 261 309
230 247 244 239 236 243 249 262 238 146 174 192 162 143 158 183 192 179 199 220 80 131 148 150 153 153 153 156 163 167 168 172 175 176 177 176 177 178 179 181 183 183 185 189 191 192 195 196 197 197 198 199 200 201 202 202 202 203 203 204 207 208 211 213 214 217 219 221 224 225 226 225 226 227 228 228 227 229 230 229 233 239 241 239 242 242 233 228 232 240 247 252 251 244 245 300 320
231 244 251 257 252 252 260 254 235 192 189 180 151 167 188 191 163 172 207 227 127 133 137 144 148 151 160 163 166 169 169 173 175 175 178 178 178 178 180 184 184 186 189 190 192 193 196 197 197 199 199 200 201 202 203 205 205 205 206 207 209 211 214 216 217 220 222 223 225 225 226 227 228 230 230 229 230 232 231 232 237 243 245 246 245 241 235 232 237 244 250 256 261 267 285 314 319
231 243 256 262 263 261 262 246 215 205 199 162 169 197 205 183 135 192 208 194 138 135 138 148 154 160 166 168 169 170 171 174 175 174 176 176 177 178 183 186 187 191 193 192 194 195 197 198 199 201 201 202 202 202 204 206 207 208 209 211 212 214 217 219 220 223 225 225 226 225 227 229 231 233 234 232 234 236 235 237 239 243 246 246 245 238 232 236 239 245 251 255 262 269 282 302 304
250 255 265 257 264 266 257 256 222 197 196 174 180 207 207 178 166 216 202 159 144 138 147 156 161 168 168 170 172 172 175 176 175 173 172 174 178 182 184 187 191 194 194 194 196 198 198 199 201 203 203 203 203 204 206 207 209 210 212 214 215 217 219 221 222 225 227 227 226 226 228 230 233 235 235 235 239 243 243 243 243 246 247 245 244 236 231 238 241 247 252 254 262 267 281 294 286
285 281 284 271 278 280 260 263 239 180 197 188 184 206 195 172 221 215 161 151 152 146 156 162 167 174 172 171 171 173 179 178 177 174 175 178 181 184 185 189 191 193 195 196 198 198 199 201 203 204 204 204 205 206 207 209 211 213 215 216 217 219 222 223 225 226 228 228 227 228 229 231 235 236 236 237 242 248 250 251 249 248 248 245 244 238 235 239 243 249 252 259 268 275 289 290 268
284 279 289 290 310 296 267 258 213 168 201 186 162 205 190 200 223 179 142 154 152 151 161 167 171 175 175 175 172 176 179 178 181 183 183 183 184 186 188 191 191 192 197 198 198 199 200 202 203 205 206 206 208 208 209 211 213 215 217 219 220 222 224 226 227 228 229 230 229 229 231 232 236 237 236 238 243 250 254 255 253 251 249 246 244 240 238 239 243 249 255 264 269 276 287 279 265
302 285 265 296 339 305 273 208 155 161 184 158 142 240 222 214 214 139 147 158 149 157 167 171 174 173 175 179 179 180 180 181 187 189 187 186 187 188 190 192 193 194 196 197 199 201 201 202 204 206 207 209 210 211 212 214 215 217 219 221 223 224 226 229 230 231 231 231 231 231 232 233 236 237 237 239 244 250 254 256 255 252 248 246 243 240 241 240 243 250 258 263 265 274 282 272 269
320 317 284 299 329 279 286 76 110 144 188 159 158 227 232 215 201 154 160 160 156 166 173 174 176 176 176 179 184 185 185 188 190 191 190 189 188 190 191 192 194 195 195 197 200 202 202 203 204 206 208 210 212 213 214 216 218 219 221 223 225 227 229 231 232 233 233 232 232 232 233 235 237 237 237 239 244 249 253 255 254 250 246 244 242 243 244 244 245 251 259 265 270 275 278 273 265
351 320 298 316 199 268 306 332 186 205 213 170 168 226 261 215 185 166 164 163 165 169 174 179 178 179 180 180 185 188 190 191 192 193 193 192 190 191 191 191 193 195 196 198 200 201 202 204 205 207 209 211 212 215 216 217 220 221 223 225 226 229 230 232 234 234 234 234 234 235 234 236 237 236 236 238 243 247 251 253 251 248 245 243 246 249 248 247 248 252 260 266 274 275 274 273 259
346 166 249 271 236 279 317 318 252 185 159 178 187 215 279 221 172 162 165 168 169 171 177 180 181 183 182 183 186 187 189 190 193 196 194 193 193 193 192 192 194 195 197 199 199 200 201 203 206 208 209 212 213 215 216 218 220 223 225 226 228 230 231 233 234 235 236 236 236 236 236 236 236 235 235 237 241 244 248 250 248 246 246 247 251 254 252 250 249 253 260 265 274 274 269 265 253
269 188 224 254 237 253 289 305 321 52 136 191 217 227 260 260 165 161 169 171 170 178 182 182 184 186 186 186 186 187 190 192 196 196 195 194 195 196 195 194 195 196 199 200 199 200 201 203 205 208 209 212 213 214 215 217 220 223 226 228 229 231 233 235 235 236 237 237 237 236 235 234 234 236 238 239 240 241 244 246 247 246 246 250 252 254 253 251 249 254 259 263 269 270 266 262 247
192 199 224 263 238 235 254 268 306 352 189 207 221 233 257 289 171 167 172 173 176 184 184 183 186 187 189 189 189 190 194 199 200 196 195 195 195 196 196 196 195 197 199 200 201 201 202 203 205 207 209 211 213 214 215 216 219 222 225 228 229 231 234 235 236 237 237 236 235 233 233 234 235 239 241 242 241 239 241 242 244 245 247 250 250 252 252 249 250 253 257 260 263 264 266 263 242
173 179 188 233 240 244 246 255 272 299 287 248 224 229 238 233 186 181 175 175 181 184 179 181 187 190 193 194 195 195 198 204 200 195 196 196 196 196 195 195 196 198 199 199 200 201 201 202 203 206 209 210 211 211 212 213 215 218 221 225 227 229 232 235 236 236 236 235 233 233 234 235 237 241 242 243 242 239 240 241 243 244 246 248 248 251 252 252 254 256 257 259 257 259 263 255 236
209 207 205 231 248 260 258 269 271 263 282 263 237 230 235 217 195 189 177 176 183 181 179 186 190 192 195 197 199 200 204 204 194 194 198 198 199 198 196 196 196 197 198 198 199 201 202 202 203 205 207 208 208 208 209 210 211 213 216 219 223 226 228 232 234 234 234 233 233 234 236 237 239 242 244 244 243 241 241 242 242 243 245 247 249 252 254 256 258 258 258 258 256 258 261 246 228
227 239 254 258 250 261 268 264 263 257 277 278 272 255 247 222 202 192 176 180 189 185 184 190 193 195 198 199 200 202 203 195 187 194 197 197 198 198 197 196 195 196 197 198 200 202 203 203 204 205 206 206 208 209 208 209 211 212 214 217 221 224 227 229 231 232 232 233 234 235 237 239 240 243 244 243 243 243 241 241 241 242 245 248 249 250 252 255 258 257 254 253 254 256 257 241 225
207 221 232 250 246 268 279 264 268 240 215 273 277 257 257 225 189 189 188 191 196 193 190 192 190 191 195 198 201 201 197 190 193 196 195 195 196 196 197 197 197 198 197 199 201 202 203 204 205 206 206 206 208 210 210 211 213 214 216 218 220 223 227 230 232 233 234 235 236 236 237 238 240 242 242 241 242 242 241 240 241 243 247 249 249 249 250 252 255 253 248 248 253 254 251 236 226
196 194 203 236 228 222 272 278 308 273 208 257 269 258 286 259 172 195 204 202 204 205 205 203 194 193 198 199 197 195 193 193 195 197 195 195 195 195 196 198 199 199 198 200 201 201 202 204 206 206 207 207 208 210 212 213 214 215 217 220 223 225 229 233 235 236 236 237 237 236 235 236 238 239 238 238 240 241 241 240 242 245 248 250 249 249 251 252 251 249 245 243 246 248 242 232 227
215 202 214 233 208 203 250 286 326 323 296 286 69 341 313 223 185 207 209 207 214 213 212 219 212 206 208 205 202 200 198 197 195 195 195 194 196 197 197 198 198 199 200 201 201 201 203 205 206 207 207 207 209 210 211 211 211 213 214 217 222 225 228 230 231 231 232 234 235 235 234 234 237 238 237 238 240 241 241 240 242 245 247 249 249 250 253 254 252 249 247 243 240 239 237 236 231
234 221 220 218 186 205 254 315 355 344 316 280 166 295 297 263 215 216 195 199 214 210 206 213 212 207 210 208 205 206 205 202 200 199 197 196 199 199 199 199 198 200 203 204 203 204 205 206 206 206 206 207 208 210 209 208 209 209 208 209 211 214 218 222 223 224 226 229 231 233 233 235 237 238 238 239 240 241 242 241 243 244 246 248 249 251 253 253 250 248 249 245 237 233 235 240 232
242 219 195 188 181 204 227 229 307 282 266 268 177 186 270 303 261 222 190 198 210 208 212 215 209 206 208 207 205 204 204 202 203 204 200 200 201 199 200 200 199 202 205 205 204 205 206 206 206 206 206 207 208 209 208 207 208 208 208 209 210 211 215 221 223 224 226 228 229 231 233 235 237 238 239 239 240 241 242 243 244 245 247 248 249 251 252 252 249 247 252 247 233 227 231 236 229
239 156 138 157 175 199 206 194 214 228 253 282 219 170 245 280 254 218 187 200 216 214 220 219 211 211 210 209 207 205 204 200 200 203 201 202 202 201 202 202 202 204 205 204 203 205 206 206 206 206 206 207 207 207 207 208 208 209 209 211 213 215 218 222 224 225 227 229 229 231 233 235 237 238 238 239 240 241 242 243 244 245 246 247 248 251 253 252 247 246 249 239 227 224 228 232 230
219 121 132 147 157 180 178 174 216 225 257 274 247 172 221 265 267 219 174 192 219 219 222 222 213 213 212 210 209 207 207 203 201 203 203 203 203 204 206 205 205 206 204 202 202 204 205 205 205 206 206 207 207 207 207 208 210 210 210 210 213 217 221 223 225 225 226 227 228 230 232 233 236 237 237 239 241 242 243 243 244 245 245 245 247 251 253 250 245 244 241 228 222 222 225 230 233
201 136 154 119 129 147 136 172 210 176 219 252 246 178 209 268 276 189 169 194 217 219 221 223 217 216 214 211 210 209 208 206 205 206 205 206 206 207 208 207 208 208 205 204 204 203 203 203 203 204 206 206 206 206 206 208 209 210 210 210 213 217 219 220 223 225 225 225 227 228 229 231 233 235 236 238 240 242 243 243 243 244 244 244 246 250 250 247 244 239 232 226 225 225 225 229 234
160 151 205 292 347 42 74 146 105 265 256 245 225 183 192 263 248 177 182 199 206 211 220 224 223 223 218 213 211 210 208 206 206 208 208 209 211 211 210 211 212 211 208 207 206 204 203 202 202 204 206 206 205 205 206 207 208 208 210 211 213 215 215 215 216 219 220 220 222 224 227 229 231 233 235 237 239 241 242 241 242 243 243 242 244 248 248 247 243 232 224 225 228 229 227 230 234
168 138 145 233 320 0 290 2 82 234 254 229 194 171 175 241 240 189 207 208 198 203 211 214 217 220 218 213 211 209 208 206 205 207 209 208 210 211 209 213 214 211 209 209 207 206 204 203 202 204 206 206 205 205 205 207 207 208 210 211 213 214 213 212 213 216 216 216 219 221 223 226 228 230 233 235 237 238 238 239 240 240 240 240 242 246 247 246 240 228 221 223 225 227 228 232 236
181 145 131 169 265 287 212 236 193 232 254 225 175 157 188 241 236 197 211 217 207 206 211 211 212 216 216 212 212 209 204 206 205 205 208 207 207 206 205 210 211 207 207 208 207 206 204 204 203 204 206 206 205 206 206 207 207 208 210 211 213 214 212 212 214 216 216 216 218 219 220 222 225 227 229 232 235 236 237 237 238 239 238 239 242 245 245 242 236 226 220 222 223 225 229 235 239
176 164 150 168 188 196 210 230 246 248 263 251 166 149 234 271 252 202 202 211 213 210 213 213 212 213 212 212 211 205 201 204 205 205 206 207 206 203 203 207 207 205 206 206 205 205 204 204 204 205 207 206 205 206 206 207 209 210 211 212 213 213 212 213 214 216 216 216 218 218 220 223 224 226 229 233 236 236 237 238 238 239 239 240 242 244 243 237 232 227 223 223 223 225 231 237 241
180 157 138 170 182 178 194 205 215 236 263 275 155 158 213 233 242 217 198 203 209 209 215 215 216 217 214 215 209 200 203 205 205 206 206 208 207 203 204 206 205 205 205 205 205 205 204 204 204 205 207 206 206 206 206 208 209 211 212 212 212 212 213 214 215 217 217 217 218 219 222 224 226 229 231 234 237 237 237 237 238 239 239 239 241 242 240 234 230 228 227 227 227 229 234 238 242
191 127 133 206 190 154 193 197 181 181 296 278 210 209 224 210 259 258 216 211 205 205 217 215 219 225 220 220 206 196 205 205 203 207 207 209 208 204 205 205 206 205 204 204 205 205 205 205 205 206 208 208 206 207 207 209 210 211 212 212 212 213 213 214 214 216 218 219 220 221 223 226 228 231 232 234 236 237 237 236 236 238 238 238 239 240 237 233 230 228 228 230 230 232 237 240 242
170 152 184 204 139 136 219 246 190 110 260 259 219 250 290 300 283 270 222 220 211 204 214 214 220 226 222 219 204 199 206 203 203 206 206 207 204 203 205 205 205 204 203 203 205 205 206 206 205 206 208 208 208 208 209 210 210 211 212 213 213 212 213 214 214 215 217 218 220 222 225 227 229 231 232 233 235 236 237 237 236 236 237 236 238 238 235 232 230 229 230 233 233 234 238 241 242
136 188 194 122 83 141 184 245 278 242 249 275 233 231 270 274 273 270 192 207 223 211 209 215 222 225 224 221 210 205 207 204 206 206 206 205 202 203 205 205 206 204 202 204 205 206 206 206 206 206 207 208 209 210 210 211 211 211 212 213 213 213 213 214 215 216 217 217 219 221 223 226 228 229 231 231 233 235 236 236 235 235 235 236 236 235 234 233 230 230 231 234 236 237 240 243 244
170 183 170 130 129 188 163 184 228 222 241 280 278 254 240 210 230 258 198 207 222 219 210 212 220 222 223 223 217 212 210 209 208 206 206 204 203 204 204 205 207 205 204 205 206 205 204 206 207 207 209 210 210 210 210 211 211 211 212 213 213 213 214 215 215 216 216 216 218 220 222 224 226 227 228 229 230 232 234 234 232 233 233 234 235 234 233 233 231 231 232 235 237 238 241 244 245
222 131 156 160 169 178 170 179 182 186 224 258 296 290 253 222 202 182 206 218 217 219 215 211 217 219 218 219 217 214 211 209 206 204 206 205 204 205 204 205 205 204 205 205 204 203 203 205 207 208 210 211 211 211 211 212 212 212 213 213 213 213 214 215 215 215 216 217 219 221 221 222 223 224 226 226 228 230 232 232 230 231 231 232 232 232 231 232 232 232 233 235 237 238 241 243 244
207 186 194 188 165 154 166 200 168 165 194 200 253 270 257 241 197 178 199 216 213 214 214 214 218 217 216 215 216 216 213 210 207 205 205 204 205 205 204 206 206 204 205 204 201 201 203 205 205 207 209 210 211 212 212 213 213 212 212 212 213 213 213 214 214 215 216 217 219 220 221 222 221 222 224 224 226 228 230 230 229 229 230 231 231 231 230 230 231 233 234 236 237 238 240 241 243
190 198 202 190 177 131 147 244 240 175 192 181 193 255 262 248 197 187 197 209 214 214 211 217 223 220 218 216 216 217 214 210 208 207 205 203 202 204 204 205 205 203 202 201 200 201 202 203 204 206 207 209 210 211 211 212 212 212 213 212 212 212 213 213 213 214 215 217 219 220 220 220 220 221 223 223 225 226 228 228 228 229 230 231 231 231 230 230 230 233 235 236 237 238 239 241 242
Height
781 783 784 786 786 788 790 791 804 805 805 815 807 803 794 783 784 785 787 786 785 781 774 774 775 777 783 789 792 792 794 797 801 810 814 799 793 798 799 801 803 805 807 808 809 811 812 814 815 816 817 818 819 820 821 823 824 826 827 828 829 831 831 833 833 834 835 835 836 837 838 839 839 839 839 840 840 840 840 841 841 842 843 843 844 845 844 844 844 845 844 843 844 843 843 843 843
781 784 784 787 786 790 794 792 807 811 811 816 803 798 791 782 785 785 785 784 783 777 772 773 774 777 779 781 785 790 794 794 793 796 797 794 796 799 800 802 803 805 807 809 810 811 813 814 816 818 819 820 821 822 823 825 826 827 829 830 831 832 832 834 834 835 835 836 837 838 839 839 840 840 840 841 841 841 841 842 842 843 844 844 845 846 846 845 845 846 845 844 845 844 844 844 844
781 784 785 787 787 790 793 795 809 816 817 816 800 790 786 785 786 782 779 777 776 772 772 774 776 779 782 786 787 792 797 794 791 792 794 796 797 798 801 802 804 806 807 809 811 812 814 816 818 819 820 821 823 824 825 826 827 829 830 831 832 833 834 834 835 835 836 837 838 839 840 840 841 841 842 842 842 842 842 843 843 844 844 845 846 846 846 846 846 846 846 845 845 845 845 845 844
782 784 785 787 790 792 797 803 810 816 817 812 802 788 785 786 781 778 775 772 771 771 774 776 780 780 781 791 790 791 797 794 791 791 794 796 796 797 800 802 805 806 808 810 812 813 815 817 819 820 821 822 824 825 826 827 828 829 831 832 833 834 834 835 835 836 837 838 839 840 840 841 842 842 843 843 843 843 843 844 844 845 846 846 847 847 847 846 847 847 846 846 846 846 846 845 845
782 785 786 787 794 796 799 807 810 814 810 802 799 788 784 782 778 779 775 772 771 772 774 776 785 781 780 788 788 792 795 793 792 791 793 796 796 798 799 802 805 807 810 811 813 815 816 818 820 821 822 823 825 826 827 828 829 830 831 833 834 834 835 836 836 837 838 839 839 840 841 842 843 843 844 844 844 844 845 845 846 846 847 847 848 848 847 847 847 847 846 846 846 846 846 846 846
783 785 786 786 791 792 801 810 811 813 798 789 793 784 780 778 777 778 775 774 771 772 773 776 783 783 787 788 786 790 790 791 792 791 793 795 797 799 800 803 805 808 810 812 814 815 817 819 820 822 823 824 825 826 828 829 829 831 832 833 834 835 836 836 837 838 839 840 840 841 842 843 844 844 845 845 845 845 846 846 847 847 848 848 848 848 848 847 847 847 847 847 847 847 846 847 847
782 787 788 791 792 792 807 813 811 811 790 781 785 779 777 775 774 776 777 778 776 775 774 777 778 783 794 790 789 789 786 788 789 791 793 794 797 799 801 803 806 809 810 812 814 815 817 819 821 822 823 825 826 827 828 829 830 831 833 834 835 835 836 837 838 839 840 841 842 843 844 844 845 845 846 846 846 847 847 848 848 848 849 849 849 849 849 848 848 848 848 848 848 847 847 847 847
782 787 788 795 802 801 810 813 808 805 787 777 777 774 773 772 772 775 779 780 781 779 777 779 775 786 796 789 793 791 786 788 788 791 793 795 798 800 803 804 806 809 811 813 814 816 818 820 821 823 824 826 826 827 828 829 831 832 833 834 835 836 837 838 839 840 841 842 843 844 845 845 846 846 846 847 847 848 848 849 849 849 850 850 850 850 850 849 849 849 849 849 848 848 848 848 848
783 787 789 797 807 808 811 811 803 795 785 777 773 771 769 769 771 775 779 780 780 780 781 779 775 788 795 791 795 791 788 789 789 792 794 797 798 800 803 804 807 809 811 813 815 817 818 820 822 823 825 826 827 828 829 830 831 832 834 835 836 837 837 839 840 841 842 843 844 845 845 846 846 847 847 848 848 849 849 850 850 850 850 851 851 851 851 850 850 849 850 850 849 849 849 849 849
785 788 792 800 808 815 813 805 796 788 782 775 771 769 767 768 771 775 779 781 780 781 781 776 777 788 793 795 796 791 790 790 790 794 796 799 799 801 804 806 808 809 811 813 815 817 818 821 822 824 825 826 827 828 830 831 832 833 834 835 836 837 838 840 841 842 843 844 845 846 846 847 847 847 848 848 849 850 850 850 850 851 851 852 852 852 851 851 851 850 850 850 850 850 849 849 849
790 790 791 803 812 817 811 800 792 785 779 773 770 766 764 766 771 776 778 781 780 782 781 777 784 789 791 796 796 791 791 790 791 795 797 800 801 803 805 807 809 809 812 813 815 817 819 821 822 824 825 827 828 829 830 831 832 833 835 836 837 838 839 840 841 843 843 845 845 846 847 847 847 848 848 849 850 851 851 851 851 852 852 852 852 853 852 852 852 851 851 851 851 851 850 850 850
794 795 795 809 814 811 804 799 792 784 778 775 773 765 761 765 772 778 779 782 781 783 782 779 784 785 793 799 795 792 791 792 793 795 798 800 802 803 805 807 809 811 812 814 816 817 819 821 823 825 826 827 828 829 831 832 833 834 835 836 837 839 840 841 842 843 844 845 846 846 847 847 848 848 849 850 851 852 852 852 852 853 853 853 853 853 853 853 853 852 852 852 852 852 851 851 851
792 795 800 809 805 803 800 797 791 785 780 773 770 763 760 766 773 776 778 782 782 785 782 776 778 780 794 798 793 792 792 793 794 796 799 801 803 804 806 808 810 811 813 814 816 818 820 821 823 825 826 827 829 830 831 832 833 834 836 837 838 839 840 841 842 843 844 845 846 846 847 847 848 849 849 850 851 852 852 853 853 853 853 853 853 853 854 853 854 853 853 853 852 852 852 852 852
788 790 798 804 798 797 796 794 789 787 781 767 763 760 760 765 768 770 775 783 784 782 777 771 773 781 793 796 795 794 792 793 794 797 800 801 803 804 807 808 810 812 813 815 816 818 820 821 823 825 826 828 829 830 831 832 834 835 836 837 838 839 840 841 842 843 844 845 846 846 847 848 849 849 850 851 852 853 853 853 853 854 854 854 854 854 854 854 854 854 853 853 853 853 853 853 853
784 786 793 801 799 796 792 789 786 787 780 765 761 759 762 764 762 768 772 780 782 773 772 772 772 781 789 791 793 790 789 793 794 798 800 802 804 805 808 809 811 812 814 815 817 819 820 822 823 825 826 827 829 830 831 833 834 835 836 837 838 839 840 841 842 843 844 845 846 847 847 848 849 850 850 851 852 853 853 854 854 854 855 855 855 854 854 854 855 854 854 854 853 853 853 853 854
779 784 794 802 801 799 791 784 783 785 777 764 760 757 767 768 761 770 768 770 777 771 772 776 773 777 782 783 784 784 787 791 794 798 800 802 804 806 808 809 812 812 814 816 817 819 820 822 823 825 826 827 829 830 831 833 834 835 836 837 838 839 840 841 842 843 844 845 846 847 848 849 849 850 851 852 852 853 853 854 854 855 855 855 855 855 855 855 855 855 855 855 854 854 854 854 854
778 787 801 805 802 799 789 781 779 778 771 765 762 758 769 774 766 767 764 766 775 775 774 775 772 772 775 778 779 782 787 791 794 797 799 802 804 806 808 809 811 812 814 815 817 818 819 822 823 824 826 827 829 829 831 832 834 835 836 837 838 840 840 841 842 843 845 845 847 847 848 849 849 850 851 852 852 853 853 853 854 855 855 855 855 855 855 855 855 856 855 855 855 855 855 854 854
784 794 803 804 800 793 780 774 769 765 767 766 762 759 766 774 771 766 767 773 776 778 777 774 774 772 774 776 779 784 787 790 793 796 798 801 803 805 807 808 810 811 813 815 816 818 819 821 822 824 826 827 828 829 831 832 834 835 836 837 838 839 840 841 842 844 845 845 847 847 848 849 849 850 851 852 852 853 853 853 854 854 855 855 855 855 855 856 856 856 856 856 856 856 855 855 855
786 794 800 797 788 780 768 765 762 760 765 763 761 760 763 768 769 766 772 781 779 781 782 778 781 779 777 778 780 785 787 790 793 794 797 799 801 803 805 807 809 810 812 813 815 817 819 821 822 824 825 827 828 829 831 832 834 834 836 837 838 839 840 841 842 843 844 845 846 847 848 849 849 850 851 852 852 853 854 854 854 854 854 855 855 855 856 856 856 856 856 856 856 856 856 856 855
783 789 799 789 774 771 763 760 758 756 758 762 764 762 764 766 765 766 774 783 781 781 781 779 785 783 780 780 780 785 787 790 792 794 796 799 801 802 804 805 807 809 810 812 814 817 818 820 822 823 825 826 827 829 830 832 833 834 835 837 838 839 840 841 842 843 844 845 846 847 848 849 850 850 851 852 852 853 853 854 854 854 854 854 855 855 855 856 856 856 856 856 856 856 856 856 856
780 783 789 776 766 771 763 756 755 752 754 759 764 764 767 765 764 768 773 784 786 778 771 768 774 778 779 779 780 783 786 789 791 793 795 797 800 802 803 805 807 808 810 812 814 816 817 819 821 823 824 825 827 828 829 831 833 834 835 836 838 838 839 840 841 843 844 845 846 847 848 849 850 850 851 851 852 853 853 854 854 854 854 854 855 855 856 856 856 856 856 856 856 856 856 856 856
777 775 774 767 765 771 761 753 753 751 754 758 763 766 766 763 766 769 770 778 777 765 760 759 763 768 772 774 777 781 784 787 789 791 793 796 798 800 802 804 806 808 810 811 812 814 816 818 820 822 824 825 826 828 829 831 832 833 834 836 837 838 839 840 841 842 843 845 846 847 848 849 849 850 851 851 852 852 853 854 854 854 854 854 855 855 856 856 856 856 857 857 857 857 857 857 857
777 772 766 764 764 766 759 754 753 752 757 761 762 760 760 765 769 767 765 765 758 751 753 758 760 762 766 770 774 778 782 784 786 788 791 793 796 798 800 802 804 806 808 810 811 814 815 817 819 821 823 824 826 827 829 830 831 833 834 835 836 837 838 840 841 842 843 844 845 847 847 848 849 850 851 851 852 852 853 853 854 854 855 855 855 855 856 856 857 857 857 857 857 857 857 857 857
775 773 764 760 759 759 755 753 753 752 757 757 755 757 761 767 767 765 764 757 751 750 752 757 760 763 766 771 773 776 778 781 784 787 789 791 794 796 799 801 803 805 807 809 810 812 814 816 818 820 822 823 825 827 828 829 831 832 833 835 836 837 838 839 841 842 843 844 845 846 847 848 849 849 850 851 852 852 853 853 854 854 855 856 856 856 856 856 857 857 857 857 857 858 857 858 857
771 769 762 758 756 754 751 751 752 751 753 752 754 759 760 760 761 763 761 755 752 751 754 758 761 765 768 770 773 775 778 780 783 786 789 792 794 797 800 801 803 805 805 807 809 811 813 815 817 819 821 822 824 826 827 829 830 831 833 834 835 837 838 839 840 841 842 843 844 845 846 847 848 849 850 851 852 852 853 854 854 854 855 856 856 856 857 857 857 857 857 857 858 858 858 858 857
765 762 760 758 756 751 749 751 752 751 750 751 757 761 758 754 758 762 757 754 754 752 756 760 762 766 768 770 771 773 776 779 781 784 788 791 794 796 798 800 802 803 804 806 808 810 812 814 816 817 819 821 823 825 826 827 829 830 831 833 834 836 837 839 840 841 842 843 844 845 846 847 848 848 849 850 851 852 853 854 854 855 855 856 856 856 857 857 857 857 857 857 858 858 858 858 857
756 757 756 754 754 749 747 749 749 749 748 749 756 760 756 753 759 764 755 752 753 755 760 762 764 766 766 769 770 772 775 776 779 783 786 789 792 794 796 798 800 801 804 805 807 809 811 813 814 816 819 821 822 824 825 826 828 829 831 832 834 835 836 838 839 840 841 842 843 844 845 846 847 848 849 850 851 852 853 854 854 855 855 856 856 856 856 857 857 857 857 857 857 857 858 858 858
753 755 756 752 750 747 744 746 746 747 749 745 749 755 755 756 759 758 752 751 752 758 763 764 766 768 767 768 770 772 774 776 779 780 783 785 787 790 792 794 797 800 802 803 805 807 810 811 813 815 817 819 821 823 824 826 827 828 830 831 833 834 836 837 838 839 840 842 843 844 845 846 847 848 849 850 851 852 852 853 854 854 855 855 855 856 856 856 856 857 857 857 857 857 857 857 857
754 754 760 756 751 749 742 742 742 744 748 741 746 763 766 762 755 749 749 751 753 758 764 765 767 768 769 769 770 772 773 775 778 778 779 781 784 787 789 792 794 797 799 801 804 806 808 810 812 814 816 818 820 821 823 824 826 828 829 830 832 833 834 836 837 838 840 841 842 843 844 845 846 847 848 849 850 851 852 852 853 853 854 855 855 855 856 856 856 856 857 856 857 857 857 857 857
756 755 761 762 762 756 740 738 741 743 746 736 749 776 773 758 750 748 749 751 755 762 765 766 767 768 770 771 771 771 772 773 774 775 778 780 783 785 787 790 792 795 797 800 802 804 806 808 810 813 815 816 818 820 822 823 825 827 828 829 831 832 833 835 836 838 839 840 841 842 843 844 846 847 848 849 850 851 851 852 852 853 853 854 854 855 855 855 856 856 856 856 856 856 857 857 857
760 762 762 766 774 763 738 738 742 746 745 733 748 774 766 752 750 748 748 749 755 762 765 765 766 767 768 770 771 772 771 771 772 774 777 779 781 784 786 789 791 793 795 797 799 802 805 807 809 811 813 815 817 819 820 822 824 825 827 828 830 831 832 834 835 837 838 839 841 842 843 844 845 846 848 849 849 850 850 851 851 852 853 853 854 854 854 855 855 856 856 855 856 856 856 856 857
764 774 775 771 774 764 744 739 740 745 745 735 750 768 758 748 748 746 746 749 754 760 764 764 765 766 767 768 769 771 771 771 772 774 776 778 780 782 784 786 789 791 793 795 797 800 803 805 807 809 811 813 815 817 819 820 822 824 825 827 828 830 831 833 834 835 837 838 840 841 842 843 844 846 847 848 848 849 849 850 850 851 852 852 853 853 854 854 855 855 855 855 855 855 856 856 856
769 777 782 775 773 770 756 743 735 739 745 744 750 759 754 745 744 745 746 748 754 760 762 763 764 765 765 766 767 769 771 771 772 773 774 776 778 780 782 784 786 789 791 793 795 798 801 803 805 807 809 811 813 816 817 819 821 822 824 826 827 829 830 831 833 834 836 837 838 839 841 842 843 845 846 847 847 848 848 849 849 850 851 851 852 852 853 854 854 855 855 855 855 855 855 856 856
778 777 778 775 772 772 765 751 739 736 745 750 750 751 750 745 743 744 745 747 754 759 761 761 762 764 764 764 766 767 769 770 769 768 770 773 775 778 780 782 785 787 789 791 794 796 799 801 804 806 808 810 812 814 816 818 820 822 823 825 826 827 829 830 832 833 834 836 837 838 840 841 842 843 845 846 846 847 847 848 848 849 850 850 851 852 852 853 853 854 854 854 855 855 855 855 855
781 780 778 776 771 769 767 758 746 740 746 750 753 754 750 747 746 744 743 745 751 755 757 759 760 762 763 763 764 765 766 766 764 764 768 771 773 776 779 781 784 785 788 790 793 795 797 800 802 804 807 808 811 813 815 818 819 821 822 823 825 826 827 829 830 831 832 834 835 837 838 840 841 842 843 844 845 846 846 847 847 848 849 850 850 851 851 852 852 853 853 853 854 854 854 855 855
770 771 772 774 771 767 762 756 746 742 749 751 753 755 749 749 751 746 744 743 748 753 755 758 761 762 763 763 763 763 763 762 761 763 767 770 772 774 777 779 781 783 786 788 791 794 796 798 800 802 804 806 809 812 814 816 818 819 821 822 823 824 825 827 828 829 831 832 834 836 837 838 840 841 842 843 844 844 845 846 846 847 848 849 850 850 850 851 852 852 852 853 853 853 854 854 855
762 766 769 769 770 767 757 753 745 740 752 751 746 750 748 749 751 746 744 745 749 754 756 758 758 759 760 760 760 760 759 758 759 764 766 769 771 773 776 777 779 782 784 787 789 791 793 795 798 799 802 805 807 808 810 812 814 816 817 818 819 821 823 825 826 827 829 830 832 834 836 837 838 839 840 841 842 843 844 845 845 846 847 848 849 849 850 850 851 851 851 852 852 852 853 854 854
760 765 768 770 770 765 754 751 745 740 752 752 744 749 748 746 750 746 744 747 748 749 752 754 753 755 756 756 757 756 756 757 759 762 763 766 769 771 774 775 777 779 781 784 785 788 790 792 794 796 799 802 803 805 807 809 810 812 814 815 817 820 821 822 824 825 827 829 831 833 834 836 837 838 839 840 840 841 842 843 844 845 846 847 848 848 849 849 850 850 851 851 852 852 853 853 854
760 763 769 771 766 761 755 749 744 743 752 752 745 748 747 742 746 746 743 743 742 740 740 742 744 749 752 752 752 753 756 758 758 758 760 762 765 768 771 772 774 775 777 780 782 784 788 790 792 794 796 798 800 802 804 805 807 810 812 814 816 818 819 821 822 824 826 828 829 831 833 834 835 836 837 838 839 840 841 842 843 844 845 846 847 847 848 848 849 850 850 851 851 851 852 853 853
758 761 768 769 761 762 762 753 746 744 747 748 746 748 748 745 746 745 741 738 738 738 737 737 739 742 743 743 744 748 752 754 755 756 757 759 762 764 766 768 770 772 775 776 778 781 783 785 787 790 792 794 797 799 801 803 806 809 811 813 815 817 819 820 822 823 824 826 827 828 830 831 833 834 835 836 837 838 839 841 842 843 844 845 845 846 847 847 848 849 849 850 851 851 851 852 853
757 756 761 762 759 760 760 754 748 744 744 743 747 755 752 748 751 748 740 739 740 740 741 742 741 740 741 742 744 746 747 749 751 753 754 755 757 759 761 763 766 769 771 772 774 776 778 780 782 785 788 790 793 795 798 802 805 808 810 813 815 816 818 819 819 820 821 822 824 825 827 829 831 832 833 834 835 837 838 839 841 842 843 844 844 845 846 846 847 848 849 849 850 850 851 852 852
758 751 749 753 756 757 755 754 753 758 760 745 747 768 763 748 751 750 743 744 743 740 741 742 741 741 742 745 745 744 745 746 748 749 750 752 753 756 758 761 763 765 766 767 769 771 773 776 779 782 785 787 790 792 796 800 802 805 807 809 811 813 814 814 814 815 817 819 821 823 825 827 829 830 831 832 834 835 837 838 839 840 841 842 843 844 845 846 846 847 848 848 849 850 850 851 851
759 744 739 748 752 755 756 756 759 769 769 748 744 767 770 754 749 747 744 745 743 741 740 738 739 740 740 740 741 741 742 743 745 746 748 749 751 753 755 756 758 759 760 762 765 768 771 774 777 779 782 784 787 790 793 797 799 801 803 805 807 808 809 809 811 814 816 818 820 822 824 826 827 828 829 831 832 834 835 837 838 839 840 841 842 843 843 844 845 846 847 847 848 849 850 850 851
753 734 734 745 749 754 755 756 762 762 758 751 745 754 767 761 746 740 742 747 747 744 741 737 736 737 735 736 736 736 737 738 740 743 744 745 747 749 750 751 752 752 754 758 762 764 767 770 773 776 779 781 784 788 790 793 795 797 799 801 804 805 806 807 810 813 815 817 819 821 822 824 825 826 828 829 831 832 834 835 836 837 838 839 840 841 842 843 844 845 846 846 847 848 849 850 850
741 729 733 740 744 749 750 754 759 757 760 764 751 749 767 763 740 735 742 747 750 745 739 736 733 732 731 731 732 731 732 732 734 738 739 740 741 743 744 745 746 747 750 754 756 758 762 765 769 772 775 778 781 784 787 789 791 793 796 799 801 802 804 807 810 812 814 816 817 819 821 822 823 825 826 827 829 831 832 833 835 835 836 838 839 840 841 842 843 844 844 845 846 847 848 849 850
732 728 734 738 742 746 748 754 756 759 768 769 754 750 766 762 739 739 748 747 745 739 733 730 727 726 726 726 728 728 728 730 731 732 733 735 736 737 739 742 744 745 748 750 751 754 758 761 765 768 771 774 777 780 783 785 788 790 793 795 797 799 802 805 808 809 812 813 815 817 818 820 821 823 824 826 827 829 830 832 833 834 835 836 838 838 839 840 841 842 843 844 845 846 847 848 849
727 730 737 743 746 747 751 753 754 768 771 758 748 746 758 761 741 735 742 735 729 730 728 727 724 723 723 722 724 724 725 726 726 728 729 731 733 735 739 741 743 745 748 750 751 753 756 758 761 764 766 769 772 775 778 780 783 786 788 790 792 795 798 802 804 806 808 810 812 814 816 818 819 821 822 824 826 827 828 830 830 832 833 835 836 837 838 839 840 841 842 843 844 845 846 847 848
727 734 741 751 757 756 759 760 763 777 771 748 740 741 753 760 739 725 724 715 712 718 719 719 719 718 716 716 717 717 719 721 722 725 726 727 730 733 737 739 740 744 747 749 750 752 754 756 759 761 763 766 769 772 774 777 780 782 784 786 788 791 795 798 800 802 804 806 809 811 813 815 817 819 821 822 823 825 826 827 828 830 831 833 834 835 836 837 838 839 840 842 843 844 845 847 847
731 738 746 762 774 773 776 776 773 774 763 743 736 742 749 743 723 713 713 709 707 706 704 705 707 707 708 710 710 710 713 716 718 720 721 723 726 728 731 733 735 740 742 744 747 749 751 753 755 757 760 762 766 769 771 774 776 778 780 783 785 788 791 793 796 798 800 803 805 808 810 812 814 816 818 819 820 822 824 825 826 828 829 831 832 833 834 835 837 838 839 840 841 843 844 845 846
735 741 748 764 779 785 787 782 774 768 756 740 736 744 745 731 712 702 701 702 700 696 694 694 694 696 698 698 699 703 707 709 711 713 716 717 719 721 724 726 730 734 736 739 742 744 747 749 751 753 755 758 761 764 767 770 772 774 776 779 782 785 788 790 792 794 797 799 801 804 806 808 811 813 814 816 818 820 822 823 824 826 828 829 831 832 833 834 835 836 837 839 840 842 843 844 845
732 731 739 753 760 770 778 775 771 765 753 744 745 747 738 724 709 694 688 689 689 689 688 686 687 687 687 688 692 699 703 703 705 708 710 711 711 714 718 720 724 727 730 734 737 740 742 744 746 749 751 754 757 760 762 765 767 770 773 775 778 781 784 786 789 791 794 796 798 800 803 805 807 809 812 814 816 818 820 821 823 824 826 828 829 830 831 832 833 834 835 837 838 840 841 842 843
728 724 735 743 736 741 755 757 754 754 755 752 749 739 722 710 700 688 686 686 684 686 685 685 687 684 683 687 691 696 698 698 700 702 704 705 706 709 713 716 719 722 726 730 732 736 738 739 742 744 747 750 753 756 758 760 763 766 769 771 774 777 780 783 786 788 791 793 795 797 799 801 804 807 809 811 813 815 817 819 821 822 824 826 827 828 829 830 831 832 834 835 836 838 839 840 841
726 728 731 725 716 725 746 754 746 749 762 757 742 732 717 708 700 686 687 690 687 687 686 685 685 681 683 688 689 690 691 691 693 694 695 698 701 705 707 710 714 717 721 724 726 729 732 735 738 740 743 747 750 752 754 757 760 763 765 768 771 774 777 779 782 784 787 789 792 794 796 799 801 804 806 808 811 813 815 817 819 821 822 823 825 826 827 828 829 830 832 833 835 836 837 838 839
720 728 718 711 716 724 737 755 754 756 767 756 738 732 723 719 712 692 688 694 691 688 686 684 683 682 684 684 683 684 683 684 685 686 688 692 695 698 701 704 707 710 714 716 719 723 726 731 734 736 739 742 744 747 750 753 756 759 762 764 768 771 773 776 778 781 784 787 789 791 794 796 798 801 803 805 808 810 812 814 816 818 820 821 823 823 825 826 827 829 830 831 833 834 835 835 837
702 708 701 709 731 738 739 752 758 762 769 755 738 732 723 717 710 696 693 693 689 686 686 684 683 681 681 679 678 679 678 680 682 683 686 687 689 692 694 698 701 704 708 710 714 719 723 727 730 733 735 736 739 743 746 749 752 755 758 761 764 767 770 773 776 779 782 783 786 788 790 793 795 798 800 802 805 807 810 812 814 816 817 819 820 821 823 824 825 826 828 829 831 832 832 833 834
695 700 700 704 717 727 733 739 741 751 762 755 743 734 719 704 694 689 689 685 682 684 684 683 680 676 675 674 672 673 674 675 676 678 679 680 682 684 686 691 694 698 703 705 710 716 719 723 726 729 732 734 738 741 743 746 748 751 755 758 761 764 767 771 773 776 778 780 782 784 787 790 792 795 797 799 802 804 807 809 811 813 814 816 818 819 820 822 823 824 826 827 828 829 830 831 832
703 708 711 709 709 713 722 728 724 732 746 751 749 739 713 690 682 678 676 674 674 676 677 676 673 669 667 666 665 666 667 668 669 670 671 673 675 677 681 685 688 693 698 702 707 711 714 718 721 724 728 731 734 736 739 742 745 748 752 755 758 761 764 768 770 773 775 777 779 781 784 787 789 792 794 796 799 801 803 806 808 810 811 813 814 816 818 819 820 822 823 824 825 827 827 828 830
695 703 705 707 709 713 727 736 723 717 727 732 739 737 706 679 675 671 666 666 665 666 669 669 667 665 663 660 658 658 659 660 661 661 663 666 669 672 676 680 685 690 694 699 703 706 710 714 717 720 723 726 728 730 734 737 741 745 747 750 754 757 761 764 766 769 771 773 776 778 781 784 786 789 791 793 795 797 800 802 805 806 808 809 811 812 815 816 817 819 820 821 822 824 825 826 827